www.pogodaiklimat.ru
ПОГОДА в Серанге
Время
(UTC), дата
21 21.09
00 22.09
03 22.09
06 22.09
09 22.09
12 22.09
15 22.09
18 22.09
21 22.09
00 23.09
03 23.09
06 23.09
09 23.09
12 23.09
15 23.09
18 23.09
21 23.09
00 24.09
03 24.09
06 24.09
09 24.09
12 24.09
15 24.09
18 24.09
21 24.09
00 25.09
03 25.09
06 25.09
09 25.09
12 25.09
15 25.09
18 25.09
21 25.09
00 26.09
03 26.09
06 26.09
09 26.09
12 26.09
15 26.09
18 26.09
21 26.09
00 27.09
03 27.09
06 27.09
09 27.09
12 27.09
15 27.09
18 27.09
21 27.09
00 28.09
03 28.09
06 28.09
09 28.09
12 28.09
15 28.09
18 28.09
Ветер
(напр.,м/с)
Видим. Явления Облачность Т
(С)
Тd
(С)
f
(%)
Тe
(С)
Тes
(С)
Комфортность P
(гПа)
Po
(гПа)
Тmin
(С)
Tmax
(С)
R
(мм)
R24
(мм)
S
(см)
штиль 0 8000 м {дождь} 9/5 500 м
[Sc As op Ci fib]
+24.7 +23.5 93 +33 +33 очень
душно
1009.9 1006.9 0.2
штиль 0 12 км {дождь} 9/5 500 м
[Sc As op Ci fib]
+24.2 +23.2 94 +32 +33 очень
душно
1010.5 1007.5 +23.2 0.2
СЗ 1 10 км 9/5 500 м
[Cu med, cong Ac trans Ci fib]
+30.4 +22.2 62 +39 +45 очень
душно
1011.1 1008.1
СВ 3 7000 м 9/8 500 м
[Cu med, cong As op Ci fib]
+32.0 +23.3 60 +43 +45 опасность
перегрева
1008.2 1005.2
штиль 0 5000 м слаб. ливневой дождь, в посл. час гроза 9/8 500 м
[Cu med, cong As op Ci fib]
+27.0 +25.1 89 +39 +40 очень
душно
1007.5 1004.5 18
штиль 0 5000 м мгла {гроза, дождь} 10/6 500 м
[Cu med, cong As op Ci fib]
+26.4 +24.5 89 +37 +37 очень
душно
1008.5 1005.5 +33.4 0.0
штиль 0 10 км 9/6 500 м
[Sc As op Ci fib]
+25.1 +24.1 94 +35 +35 очень
душно
1009.5 1006.6
штиль 0 10 км 9/6 500 м
[Sc As op Ci fib]
+23.8 +22.7 94 +31 +31 очень
душно
1008.5 1005.5
штиль 0 10 км 6/4 500 м
[Sc As op Ci fib]
+23.0 +22.0 94 +31 +31 очень
душно
1008.4 1005.5
штиль 0 12 км 4/3 500 м
[Sc As trans Ci fib]
+23.8 +22.7 94 +31 +33 очень
душно
1009.8 1006.8 +22.4 18
СВ 2 10 км 5/4 500 м
[Cu med, cong As trans Ci fib]
+30.4 +23.6 67 +41 +51 опасность
перегрева
1010.1 1007.1
С 3 8000 м 6/4 500 м
[Cu med, cong As op Ci fib]
+32.8 +24.4 61 +45 +54 опасность
перегрева
1008.2 1005.2
С 3 7000 м 6/5 500 м
[Cu med, cong As op Ci fib]
+32.4 +24.9 65 +46 +48 опасность
перегрева
1007.4 1004.4
В 1 5000 м слаб. дождь 9/1 450 м
[Cb cap As op Ci fib]
+28.2 +22.1 70 +37 +37 очень
душно
1010.5 1007.5 +33.8 0.0
штиль 0 5000 м мгла {гроза, дождь} 8/5 500 м
[Sc As op Ci fib]
+24.6 +22.1 86 +32 +32 очень
душно
1010.6 1007.6 0.0
штиль 0 5000 м мгла {гроза} 8/5 <50 м
[Sc As op Ci fib]
+24.6 +22.4 88 +32 +32 очень
душно
1010.1 1007.1 0.0
штиль 0 5000 м мгла 6/4 500 м
[Sc As op Ci fib]
+24.6 +22.9 90 +33 +33 очень
душно
1009.6 1006.6
штиль 0 8000 м 6/4 500 м
[Sc As op Ci fib]
+25.2 +23.0 88 +34 +35 очень
душно
1011.1 1008.1 +23.8 0.0
СЗ 2 5000 м мгла 5/1 500 м
[Cu hum As trans Ci fib]
+32.0 +23.5 61 +43 +56 опасность
перегрева
1011.3 1008.3
СВ 4 5000 м мгла 4/4 500 м
[Cu med, cong As trans Ci fib]
+34.8 +22.8 50 +45 +54 опасность
перегрева
1008.5 1005.5
СЗ 3 5000 м мгла 6/4 500 м
[Cu med, cong As op Ci fib]
+34.4 +24.2 55 +46 +49 опасность
перегрева
1007.5 1004.5
С 2 5000 м мгла 8/5 500 м
[Sc As op Ci fib]
+30.0 +24.3 72 +42 +42 опасность
перегрева
1009.0 1006.0 +35.0
штиль 0 5000 м мгла 8/5 500 м
[Sc As op Ci fib]
+27.4 +24.3 83 +38 +38 очень
душно
1010.6 1007.6
Ю 1 5000 м мгла 8/5 500 м
[Sc As op Ci fib]
+25.8 +23.9 89 +35 +35 очень
душно
1009.6 1006.6
штиль 0 5000 м мгла 5/4 500 м
[Sc As trans Ci fib]
+24.8 +23.1 90 +33 +33 очень
душно
1008.9 1005.9
Ю 1 8000 м 9/5 500 м
[Sc As op Ci fib]
+24.8 +23.1 90 +33 +34 очень
душно
1010.7 1007.7 +23.6
СВ 1 5000 м мгла 8/5 500 м
[Sc As op Ci fib]
+31.8 +23.6 62 +43 +50 опасность
перегрева
1010.7 1007.7
СЗ 3 5000 м мгла 9/8 500 м
[Cu med, cong As op Ci fib]
+33.4 +24.5 60 +46 +49 опасность
перегрева
1007.6 1004.6
З 4 5000 м в посл. час гроза 10/5 500 м
[Sc As op]
+31.3 +23.5 63 +42 +42 опасность
перегрева
1006.7 1003.7
штиль 0 5000 м мгла {гроза} 8/1 500 м
[Sc As trans Ci fib]
+28.3 +24.5 80 +40 +40 очень
душно
1008.3 1005.3 +34.0
штиль 0 5000 м мгла 9/5 500 м
[Sc As op Ci fib]
+26.2 +23.7 86 +36 +36 очень
душно
1010.4 1007.4
штиль 0 5000 м мгла 9/5 500 м
[Sc As op Ci fib]
+25.0 +23.1 89 +33 +33 очень
душно
1009.2 1006.2
штиль 0 5000 м мгла 9/5 500 м
[Sc As op Ci fib]
+24.2 +22.8 92 +32 +32 очень
душно
1008.2 1005.2
штиль 0 5000 м мгла 8/5 500 м
[Sc As op Ci fib]
+24.8 +23.1 90 +33 +34 очень
душно
1010.0 1007.0 +23.6
В 1 5000 м мгла 9/8 500 м
[Cu med, cong As op Ci fib]
+30.8 +23.3 64 +41 +44 опасность
перегрева
1010.8 1007.8
С 2 5000 м мгла 9/5 500 м
[Cu med, cong As op Ci fib]
+32.0 +23.9 62 +43 +50 опасность
перегрева
1008.2 1005.2
Ю 1 5000 м в посл. час гроза 9/6 500 м
[Cu med, cong As op Ci fib]
+29.8 +22.8 66 +39 +41 очень
душно
1006.9 1003.9
штиль 0 5000 м мгла {гроза} 8/5 500 м
[Sc As op Ci fib]
+27.8 +22.2 72 +36 +36 очень
душно
1009.2 1006.2 +33.8
штиль 0 5000 м мгла 8/5 500 м
[Sc As op Ci fib]
+26.0 +23.2 85 +35 +35 очень
душно
1011.0 1008.0
штиль 0 5000 м мгла 8/4 500 м
[Sc As op Ci fib]
+24.6 +22.9 90 +33 +33 очень
душно
1009.8 1006.8
штиль 0 5000 м мгла 6/4 500 м
[Sc As op Ci fib]
+24.2 +22.5 90 +32 +32 очень
душно
1009.1 1006.1
штиль 0 5000 м мгла 8/6 500 м
[Sc As op Ci fib]
+24.8 +23.1 90 +33 +34 очень
душно
1010.3 1007.3 +24.0
Ю 1 5000 м мгла 9/6 500 м
[Sc As op Ci fib]
+30.6 +23.2 65 +41 +46 опасность
перегрева
1011.4 1008.4
СЗ 2 5000 м в посл. час дождь 9/8 500 м
[Sc As op Ci fib]
+31.0 +23.3 64 +42 +45 опасность
перегрева
1009.1 1006.1 0.0
З 3 5000 м мгла {гроза, дождь} 8/6 500 м
[Sc As op Ci fib]
+31.0 +22.7 61 +41 +42 опасность
перегрева
1007.4 1004.4 0.0
ЮВ 2 5000 м в посл. час гроза {дождь} 10/8 500 м
[Sc As op Ci fib]
+26.4 +23.1 82 +35 +35 очень
душно
1010.6 1007.6 +31.9 0.3
штиль 0 8000 м 6/4 500 м
[Sc As op Ci fib]
+25.0 +22.6 87 +33 +33 очень
душно
1011.7 1008.7
штиль 0 8000 м 5/4 500 м
[Sc As op Ci fib]
+24.2 +22.8 92 +32 +32 очень
душно
1010.0 1007.0
штиль 0 8000 м 5/4 500 м
[Sc As trans Ci fib]
+23.4 +22.1 92 +32 +32 очень
душно
1009.3 1006.3
штиль 0 8000 м 9/4 500 м
[Sc As op Ci fib]
+23.6 +21.9 90 +30 +31 очень
душно
1010.1 1007.1 +22.8 0.3
В 1 7000 м 8/5 500 м
[Cu med, cong As op Ci fib]
+31.4 +22.6 60 +41 +48 опасность
перегрева
1010.3 1007.3
З 3 7000 м 9/5 500 м
[Cu med, cong As op Ci fib]
+32.4 +23.7 60 +44 +49 опасность
перегрева
1008.2 1005.2
З 2 5000 м мгла {гроза} 9/4 500 м
[Sc As op Ci fib]
+31.6 +23.1 61 +42 +44 опасность
перегрева
1006.9 1003.9
Ю 2 5000 м мгла {гроза} 10/9 500 м
[Sc As op Ci fib]
+27.5 +23.4 78 +37 +37 очень
душно
1008.9 1005.9 +34.3
штиль 0 5000 м слаб. дождь 10/8 500 м
[Sc As op Ci fib]
+26.4 +23.6 85 +36 +36 очень
душно
1011.0 1008.0 0.0
штиль 0 5000 м мгла {дождь} 8/6 500 м
[Sc As op Ci fib]
+26.0 +23.5 86 +35 +35 очень
душно
1009.4 1006.4 0.0
Местоположение метеостанции Серанг (Индонезия): широта -6.12 долгота 106.13 высота над уровнем моря 40 м.
В архиве по умолчанию представлена погода в Серанге за последнюю неделю. Архивные данные за месяц целиком и за предыдущие месяцы, начиная с января 2011 года, Вы можете получить, выбрав интересующий диапазон дат из раскрывающегося списка и нажав кнопку "Найти!".
*Определитесь, кто Вы:
Внимание! Время в таблицах - всемирное. Для получения местного времени необходимо прибавить поправку, которая равна 7 ч.
Смотрите также архив погоды в соседних городах и на ближайших метеорологических станциях:
Партнеры нашего сайта:      
Пояснения к столбцам:
  • Ветер - указаны скорость ветра в м/с - средняя за 10 мин, порывы в срок и между сроками (в фигурных скобках) и направление, откуда дует ветер: С - северный,
  • СВ - северо-восточный, В - восточный, ЮВ - юго-восточный, Ю - южный, ЮЗ - юго-западный, З - западный, СЗ - северо-западный.
  • Видимость - горизонтальная дальность видимости в метрах или километрах. При видимости от 1 до 10 км при отсутствии осадков обычно наблюдается дымка, при ухудшении видимости до 1 км и менее - туман. В сухую погоду видимость может ухудшаться дымом, пылью или мглою.
  • Явления - указаны атмосферные явления, наблюдавшиеся в срок или в последний час перед сроком; фигурными скобками обозначены явления, наблюдавшиеся между сроками (за 1-3 часа до срока); квадратными скобками обозначены град или гололедные отложения с указанием их диаметра в мм.
  • Облачность - указаны через наклонную черту общая и нижняя облачность в баллах и высота нижней границы облаков в метрах; квадратными скобками обозначены формы облаков: Ci - перистые, Cs - перисто-слоистые, Cc - перисто-кучевые, Ac - высококучевые, As - высокослоистые, Sc - слоисто-кучевые, Ns - слоисто-дождевые, Cu - кучевые, Cb - кучево-дождевые. Подробнее классификацию облаков см. в Атласе облаков (PDF).
  • T - Температура воздуха - температура, измеренная на высоте 2 м над землей.
  • Td - Температура точки росы - температура, при понижении до которой содержащийся в воздухе водяной пар достигнет насыщения.
  • f - Относительная влажность воздуха - влажноcть воздуха, измеренная на высоте 2 м над землей.
  • Te - Эффективная температура - температура, которую ощущает одетый по сезону человек в тени. Характеристика душности погоды. При расчете учитывается влияние влажности воздуха и скорости ветра на теплоощущения человека.
  • Tes - Эффективная температура на солнце - температура, которую ощущает человек, с поправкой на солнечный нагрев. Характеристика знойности погоды. Зависит от высоты солнца над горизонтом, облачности и скорости ветра. Ночью, в пасмурную погоду, а также при ветре 12 м/с и более поправка равна нулю.
  • P - Атмосферное давление - приведенное к уровню моря атмосферное давление.
  • Po - Атмосферное давление - измеренное на уровне метеостанции атмосферное давление.
  • Tmin - Минимальная температура - минимум температуры воздуха на высоте 2 м над землей.
  • Tmax - Максимальная температура - максимум температуры воздуха на высоте 2 м над землей.
  • R - Количество осадков - Количество выпавших осадков за период времени, мм. При наведении курсора мыши на число - период времени, за который выпало указанное количество осадков.
  • R24 - Количество осадков - Количество выпавших осадков за 24 часа, мм.
  • S - Снежный покров - Высота снежного покрова, см. При наведении курсора мыши на число - состояние снежного покрова и степень покрытия местности в баллах.